www.pogodaiklimat.ru

Погода и климат >> Архив погоды >> Антарктида >> Дэвис


ПОГОДА на Дэвисе

  • Прогноз погоды на Дэвисе
  • Монитор погоды на Дэвисе

АРХИВ ПОГОДЫ на Дэвисе

Время (UTC), дата Ветер
(напр.,м/с)
 
Видим.   Явления Облачность Т
(С)
Тd
(С)
f
(%)
Тe
(С)
Тes
(С)
Комфортность P
(гПа)
Po
(гПа)
Тmin
(С)
Tmax
(С)
R
(мм)
R24
(мм)
S
(см)
06 15.08 В 6 10 км слаб. снег 10/0 2000 м
[As op]
-18.1 -20.4 82 -29 -29 983.5 981.2
18 15.08 З 2 10 км слаб. снег 10/0 2000 м
[As op]
-20.3 -22.7 81 -25 -25 990.8 988.4
00 16.08 З 2 10 км слаб. снег 10/0 2000 м
[As op]
-22.2 -24.8 79 -27 -27 994.0 991.6
06 16.08 З 2 18 км {снег} 4/0
[Ac trans]
-28.3 -31.5 74 -34 -34 опасность
обморожения
996.1 993.7
12 16.08 штиль 0 20 км 3/0
[Ac lent]
-33.9 -37.6 69 -34 -34 опасность
обморожения
995.8 993.3
18 16.08 В 1 25 км 3/0
[Ac trans]
-36.4 -40.5 66 -38 -38 опасность
обморожения
991.1 988.6
00 17.08 ЮВ 2 25 км 3/0
[Ac trans]
-32.1 -35.7 70 -39 -39 опасность
обморожения
986.9 984.4
06 17.08 ЮЗ 1 25 км 3/3 1500 м
[Sc]
-28.2 -31.4 74 -29 -29 985.9 983.4
12 17.08 В 3 30 км ясно -25.7 -29.0 74 -34 -34 опасность
обморожения
984.1 981.7
18 17.08 штиль 0 30 км ясно -25.3 -29.2 70 -25 -25 981.0 978.6
00 18.08 В 7 25 км 10/0
[Ac As]
-14.8 -18.1 76 -25 -25 976.2 973.9
06 18.08 В 11 12 км 10/10 1500 м
[Sc]
-10.5 -13.7 77 -22 -22 971.6 969.3
12 18.08 В 6 12 км в посл. час снег 10/0 2000 м
[As op]
-9.7 -12.8 78 -18 -18 968.4 966.2
18 18.08 ЮВ 3 12 км слаб. снег 10/0 2000 м
[As op]
-10.2 -12.7 82 -16 -16 965.8 963.6
00 19.08 штиль 0 10 км слаб. снег 10/0 2000 м
[As op]
-9.2 -10.8 88 -10 -10 966.3 964.1
06 19.08 В 7 10 км слаб. снег 10/0 2000 м
[As op]
-8.6 -11.1 82 -17 -17 970.1 967.9
12 19.08 В 12 5000 м метель {снег} 8/8 1500 м
[Sc]
-9.1 -11.9 80 -20 -20 973.7 971.5
18 19.08 В 15 5000 м метель 10/10 1500 м
[Sc]
-10.1 -13.4 77 -23 -23 975.7 973.5
00 20.08 В 9 10 км {метель} 10/10 1500 м
[Sc]
-9.9 -17.0 56 -20 -20 976.1 973.9
06 20.08 В 8 20 км 9/9 1500 м
[Sc]
-8.2 -14.0 63 -18 -18 978.1 975.9
12 20.08 В 7 25 км 9/9 1500 м
[Sc]
-8.4 -15.2 58 -17 -17 982.2 980.0
18 20.08 В 9 25 км 9/9 1500 м
[Sc]
-8.5 -13.5 67 -18 -18 985.4 983.2
00 21.08 В 7 25 км 3/3 1500 м
[Sc]
-10.3 -17.0 58 -19 -19 988.3 986.0
06 21.08 В 6 25 км 8/3 1500 м
[Sc Ci fib]
-10.9 -18.6 53 -20 -19 989.8 987.5
12 21.08 В 8 25 км 9/9 1500 м
[Sc]
-10.7 -17.8 56 -20 -20 990.6 988.3
18 21.08 В 11 25 км 4/4 1500 м
[Sc]
-10.2 -18.4 51 -21 -21 990.3 988.0

 

Местоположение метеостанции Дэвис (Антарктида): широта -69.37 долгота 76.37 высота над уровнем моря 18 м.

В архиве по умолчанию представлена погода на Дэвисе за последнюю неделю. Архивные данные за месяц целиком и за предыдущие месяцы, начиная с января 2011 года, Вы можете получить, выбрав интересующий диапазон дат из раскрывающегося списка и нажав кнопку "Ввод!".


*Определитесь, кто Вы:
робот инопланетянин человек

Внимание! Время в таблицах - всемирное. Для получения местного времени необходимо прибавить поправку, которая равна 0 ч.

Смотрите также архив погоды в соседних городах и на ближайших метеорологических станциях:

Погода на Прогрессе (Антарктида) (1 км)
Погода на Бхарати (Антарктида) (8 км)
Погода на Davis (Антарктида) (108 км)
Погода на Дружной-4 (Антарктида) (111 км)
Погода на Davis (Whoop Whoop) (Антарктида) (140 км)
Погода на Леднике Эймери (Антарктида) (299 км)
Погода на Моусоне (Антарктида) (583 км)
Погода в Мирном (Антарктида) (759 км)
Погода на Dome Plateau Eagle (Антарктида) (783 км)
Погода на Davis АМС (Антарктида) (1223 км)

Пояснения к столбцам:

Ветер - указаны скорость ветра в м/с - средняя за 10 мин, порывы в срок и между сроками (в фигурных скобках) и направление, откуда дует ветер: С - северный, СВ - северо-восточный, В - восточный, ЮВ - юго-восточный, Ю - южный, ЮЗ - юго-западный, З - западный, СЗ - северо-западный.
Видимость - горизонтальная дальность видимости в метрах или километрах. При видимости от 1 до 10 км при отсутствии осадков обычно наблюдается дымка, при ухудшении видимости до 1 км и менее - туман. В сухую погоду видимость может ухудшаться дымом, пылью или мглою.
Явления - указаны атмосферные явления, наблюдавшиеся в срок или в последний час перед сроком; фигурными скобками обозначены явления, наблюдавшиеся между сроками (за 1-3 часа до срока); квадратными скобками обозначены град или гололедные отложения с указанием их диаметра в мм.
Облачность - указаны через наклонную черту общая и нижняя облачность в баллах и высота нижней границы облаков в метрах; квадратными скобками обозначены формы облаков: Ci - перистые, Cs - перисто-слоистые, Cc - перисто-кучевые, Ac - высококучевые, As - высокослоистые, Sc - слоисто-кучевые, Ns - слоисто-дождевые, Cu - кучевые, Cb - кучево-дождевые. Подробнее классификацию облаков см. в Атласе облаков (PDF).
T - Температура воздуха - температура, измеренная на высоте 2 м над землей.
Td - Температура точки росы - температура, при понижении до которой содержащийся в воздухе водяной пар достигнет насыщения.
f - Относительная влажность воздуха - влажноcть воздуха, измеренная на высоте 2 м над землей.
Te - Эффективная температура - температура, которую ощущает одетый по сезону человек в тени. Характеристика душности погоды. При расчете учитывается влияние влажности воздуха и скорости ветра на теплоощущения человека.
Tes - Эффективная температура на солнце - температура, которую ощущает человек, с поправкой на солнечный нагрев. Характеристика знойности погоды. Зависит от высоты солнца над горизонтом, облачности и скорости ветра. Ночью, в пасмурную погоду, а также при ветре 12 м/с и более поправка равна нулю.
P - Атмосферное давление - приведенное к уровню моря атмосферное давление.
Po - Атмосферное давление - измеренное на уровне метеостанции атмосферное давление.
Tmin - Минимальная температура - минимум температуры воздуха на высоте 2 м над землей.
Tmax - Максимальная температура - максимум температуры воздуха на высоте 2 м над землей.
R - Количество осадков - Количество выпавших осадков за период времени, мм. При наведении курсора мыши на число - период времени, за который выпало указанное количество осадков.
R24 - Количество осадков - Количество выпавших осадков за 24 часа, мм.
S - Снежный покров - Высота снежного покрова, см. При наведении курсора мыши на число - состояние снежного покрова и степень покрытия местности в баллах.